Preview of NWS' New Version of Forecast
This preview is not operational and should not be used for support decisions.

Regional Weather Roundup (RWR)

Issued by Gray - Portland, ME (GYX)

                            
000
ASUS41 KGYX 240710
RWRGYX
WEATHER ROUNDUP FOR MAINE AND NEW HAMPSHIRE
NATIONAL WEATHER SERVICE GRAY ME
300 AM EDT FRI MAY 24 2019

MEZ002-005-006-010-012-015-018-020-021-024-026-027-029-240800-
MAINE
  
CITY           SKY/WX    TMP DP  RH WIND       PRES   REMARKS
PORTLAND       CLOUDY    54  53  97 VRB3      29.58F FOG              
SANFORD        CLOUDY    56  55  97 CALM      29.60F FOG              
BAR HARBOR     LGT RAIN  47  46  97 E7        29.63F                  
WISCASSET      FOG       51  50  96 CALM      29.58F VSB 3/4          
ROCKLAND       LGT RAIN  49  49 100 CALM      29.60F VSB 3/4          
FRYEBURG       FAIR      52  52 100 SW6       29.57F                  
LEWISTONAUBURN CLOUDY    52  52 100 N6        29.58F FOG              
AUGUSTA        FOG       50  50 100 CALM      29.60F VSB 1/4          
WATERVILLE     LGT RAIN  50  50 100 CALM      29.57F                  
BANGOR         RAIN      49  48  97 E7        29.63F FOG              
GREENVILLE       N/A     45  44  97 SE15      29.57F                  
MILLINOCKET    LGT RAIN  49  46  90 E9        29.67F FOG              
HOULTON        CLOUDY    48  46  93 E12G21    29.69F                  
PRESQUE ISLE   LGT RAIN  50  47  89 NE6       29.74F                  
FRENCHVILLE    LGT RAIN  52  45  77 E9        29.76F                  
CARIBOU        LGT RAIN  51  45  79 E8        29.74F                  
$$

NHZ002-005-008-009-011-012-014-240800-
NEW HAMPSHIRE
  
CITY           SKY/WX    TMP DP  RH WIND       PRES   REMARKS
PORTSMOUTH     PTCLDY    58  57  98 W9        29.60F                  
ROCHESTER      CLOUDY    55  54  96 CALM      29.60F FOG              
NASHUA         FAIR      59  59 100 CALM      29.65F                  
MANCHESTER     FAIR      58  56  93 S6        29.62F                  
CONCORD        FAIR      53  53 100 VRB3      29.63F                  
LACONIA        FAIR      57  55  93 SW10      29.61F                  
PLYMOUTH       MOCLDY    54  53  95 CALM      29.61F FOG              
BERLIN         NOT AVBL                                               
WHITEFIELD     CLOUDY    58  53  84 SW8       29.60F                  
JAFFREY        FAIR      57  54  89 S8        29.67F                  
KEENE          MOCLDY    53  53 100 CALM      29.68F                  
LEBANON        FAIR      53  50  89 NE3       29.64F FOG              
MT WASHINGTON  FOG       41  41 100 W68G82      N/A  VSB 0            
$$

VTZ005-007-008-240800-
VERMONT
  
CITY           SKY/WX    TMP DP  RH WIND       PRES   REMARKS
ST JOHNSBURY     N/A     59  55  87 MISG      29.58F                  
MONTPELIER     CLOUDY    59  50  72 W8G20     29.66F                  
BURLINGTON     CLOUDY    62  32  32 W10       29.64S                  
$$

MAZ007-012-024-CTZ003-RIZ002-NYZ038-NYZ072-240800-
SOUTHERN NEW ENGLAND AND NY
  
CITY           SKY/WX    TMP DP  RH WIND       PRES   REMARKS
BOSTON         FAIR      64  58  80 SW16      29.65F                  
WORCESTER      FAIR      57  56  96 SW10      29.71F                  
NANTUCKET      LGT RAIN  58  57  97 W16G29    29.73F                  
PROVIDENCE     CLOUDY    62  60  93 W5        29.71F                  
HARTFORD       FAIR      62  56  80 W6        29.74F                  
ALBANY         CLOUDY    62  52  69 W12       29.74F                  
NEW YORK CITY  FAIR      72  63  73 W16G26    29.78F                  
$$

ANZ081-ANZ082-ANZ150-NHZ014-MEZ023>029-240800-
COASTAL MARINE OBSERVATIONS
  
STATION/POSITION TIME  TEMP    WIND        PRES    WAVE
                       AIR SEA DIR/SP/G            HT/PER
                 (UTC) (F)     (DEG/KT/KT) (MB)    (FT/S)
ISLE OF SHOALS   0600   54     230/ 14/ 15 1003.0F
JEFFREYS LEDGE   0638      48                N/A     5/ 7
CASHES LEDGE BUO 0650   50 47              1002.0    5/ 7
GEORGES BANK BUO 0650   51 44  180/ 17/ 23 1011.2F   5/ 6
$$

.............KEY..............
   WCI - WIND CHILL
   TC  - TEMPERATURE IN CELSIUS
   VSB - VISIBILITY IN MILES
   HX  - HEAT INDEX
   FAIR- INDICATES FEW OR NO CLOUDS BELOW 12,000 FT, WITH NO 
         SIGNIFICANT WEATHER AND/OR OBSTRUCTIONS TO VISIBILITY.